#timestamp,LO_Frequency,Hit,StdDev 
1663736415.8,286046998.1,N
1663736435.6,286047001.0,N
1663736455.5,286047001.2,N
1663736475.3,286047001.2,N
1663736495.1,286047000.8,N
1663736515.9,286047000.3,N
1663736535.7,286047000.5,N
1663736555.6,286047000.3,N
1663736575.4,286047000.7,N
1663736595.2,286047000.7,N
1663736615.1,286047001.2,N
1663736616.0,286047001.2,N
1663736635.8,286047001.2,N
1663736655.7,286047001.2,N
1663736675.5,286046998.7,N
1663736695.4,286046998.4,N
1663736715.2,286046998.9,N
1663736735.0,286046998.6,N
1663736735.9,286046998.6,N
1663736755.8,286046999.0,N
1663736775.6,286046999.2,N
1663736795.5,286046996.6,N
1663736815.3,286046997.0,N
1663736835.1,286046997.0,N
1663736855.9,286046996.5,N
1663736875.7,286046996.7,N
1663736895.5,286046997.6,N
1663736915.4,286046997.1,N
1663736935.2,286046996.6,N
1663736955.1,286046999.0,N
1663736956.0,286046999.0,N
1663736975.8,286046996.5,N
1663736995.6,286046999.4,N
1663737015.5,286046996.5,N
1663737035.3,286046999.4,N
1663737055.1,286046999.6,N
1663737075.9,286046999.1,N
1663737095.7,286046998.9,N
1663737115.6,286046996.5,N
1663737135.4,286046999.0,N
1663737155.2,286046999.1,N
1663737175.1,286046996.5,N
1663737176.0,286046996.5,N
1663737195.8,286046996.6,N
1663737215.6,286046999.1,N
1663737235.5,286046997.1,N
1663737255.3,286046996.6,N
1663737275.2,286046999.6,N
1663737295.9,286046996.6,N
1663737315.7,286046996.9,N
1663737335.6,286046997.4,N
1663737355.4,286046997.1,N
1663737375.2,286046996.7,N
1663737395.1,286046996.9,N
1663737396.0,286046996.9,N
1663737415.8,286046996.7,N
1663737435.7,286046997.0,N
1663737455.5,286046997.1,N
1663737475.3,286046999.6,N
1663737495.2,286046999.6,N
1663737515.0,286046999.1,N
1663737515.9,286046999.1,N
1663737535.8,286046999.4,N
1663737555.6,286046997.3,N
1663737575.4,286046997.1,N
1663737595.3,286046997.0,N
1663737615.1,286046998.3,N
1663737635.8,286046998.4,N
1663737655.7,286046998.9,N
1663737675.5,286046999.4,N
1663737695.4,286046997.7,N
1663737715.2,286046997.2,N
1663737735.0,286046997.4,N
1663737735.9,286046997.4,N
1663737755.8,286046997.5,N
1663737775.6,286046995.3,Y
1663737795.4,286046998.1,P
1663737815.3,286046998.1,P
1663737835.1,286047001.1,P
1663737855.9,286047000.6,N
1663737875.7,286047001.2,N
1663737895.5,286047001.2,N
1663737915.4,286046998.1,N
1663737935.2,286046998.4,N
1663737955.0,286046999.2,N
1663737955.9,286046999.2,N
1663737975.8,286046999.3,N
1663737995.6,286046999.2,N
1663738015.5,286046998.8,N
1663738035.3,286047001.1,N
1663738055.1,286047000.9,N
1663738075.9,286047001.1,N
1663738095.7,286046999.2,N
1663738115.5,286046999.6,N
1663738135.4,286046999.0,N
1663738155.2,286046998.1,N
1663738175.1,286046999.4,N
1663738176.0,286046999.4,N
1663738195.8,286046999.4,N
1663738215.6,286046999.0,N
1663738235.5,286046998.5,N
1663738255.3,286046998.3,N
1663738275.1,286046999.3,N
1663738295.9,286046998.9,N
1663738315.7,286046999.1,N
1663738335.6,286046998.8,N
1663738355.4,286046999.0,N
1663738375.2,286046998.8,N
1663738395.1,286046998.7,N
1663738396.0,286046998.7,N
1663738415.8,286047000.8,N
1663738435.6,286046998.9,N
1663738455.5,286046998.6,N
1663738475.3,286046999.1,N
1663738495.2,286046996.6,Y
1663738515.9,286046998.7,P
1663738535.7,286046998.5,P
1663738555.6,286046999.1,N
1663738575.4,286046999.2,N
1663738595.3,286046999.4,N
1663738615.1,286046999.4,N
1663738616.0,286046999.4,N
1663738635.8,286046999.4,N
1663738655.7,286046998.4,Y
1663738675.5,286047001.1,P
1663738695.4,286047001.0,N
1663738715.2,286046998.7,N
1663738735.0,286047001.1,N
1663738735.9,286047001.1,N
1663738755.8,286046998.3,N
1663738775.6,286046998.2,N
1663738795.4,286046998.2,N
1663738815.3,286046998.2,N
1663738835.1,286046998.7,N
1663738855.9,286046998.9,N
1663738875.7,286046996.5,N
1663738895.5,286046996.8,N
1663738915.4,286046996.8,N
1663738935.2,286046997.0,N
1663738955.0,286046997.4,N
1663738955.9,286046997.4,N
1663738975.8,286046996.9,N
1663738995.6,286046998.8,N
1663739015.5,286046999.2,N
1663739035.3,286046995.3,Y
1663739055.1,286046996.7,P
1663739075.9,286046997.3,N
1663739095.7,286046998.4,N
1663739115.5,286046998.5,N
1663739135.4,286047000.7,N
1663739155.2,286047002.4,N
1663739175.1,286047001.5,N
1663739176.0,286047001.5,N
1663739195.8,286047002.3,N
1663739215.6,286046999.7,N
1663739235.5,286047000.6,N
1663739255.3,286046998.1,N
1663739275.2,286047000.5,N
1663739295.9,286046998.2,N
1663739315.7,286046997.1,N
1663739335.6,286046997.9,N
1663739355.4,286046997.9,N
1663739375.2,286046998.4,N
1663739395.1,286046998.9,N
1663739396.0,286046998.9,N
1663739415.8,286046999.7,N
1663739435.7,286047000.9,N
1663739455.5,286047001.0,N
1663739475.3,286047002.3,N
1663739495.2,286047002.4,N
1663739515.0,286047002.0,N
1663739515.9,286047002.0,N
1663739535.8,286047001.9,N
1663739555.6,286047001.8,N
1663739575.4,286047004.2,N
1663739595.3,286047002.4,N
1663739615.1,286046998.8,N
1663739635.8,286046997.4,N
1663739655.7,286047001.1,N
1663739675.5,286047000.2,N
1663739695.4,286047001.3,N
1663739715.2,286047004.0,N
1663739735.0,286047004.1,N
1663739735.9,286047004.1,N
1663739755.8,286047003.2,N
1663739775.6,286047006.0,N
1663739795.4,286047005.9,N
1663739815.3,286047003.4,N
1663739835.1,286047003.4,N
1663739855.9,286047003.3,N
1663739875.7,286047003.1,N
1663739895.5,286047004.3,N
1663739915.4,286047003.1,N
1663739935.2,286047004.1,N
1663739955.0,286047001.3,N
1663739956.0,286047001.3,N
1663739975.8,286047004.0,N
1663739995.6,286047004.1,N
